Location: Bougoudala
(13.2282°N, 4.9477°W)
Time: 23:37:14
(UTC+00:00)

Cosmos 1825 - Pass Details

Date: 29 January 2020
Orbit: 502 x 509 km, 82.5° (Epoch: 19 February)

Event Time Altitude Azimuth Distance (km) Brightness Sun altitude
Rises 20:14:29 0° 200° (SSW) 2,603 6.2 -27.9°
Reaches altitude 10° 20:16:44 10° 210° (SSW) 1,718 5.3 -28.4°
Enters shadow 20:19:12 29° 244° (WSW) 953 4.1 -29.0°
